[[{"header":{"parameterUnit":"m.s-1","parameterCategory":1,"la1":30.2992,"la2":30.254,"lo1":-89.0895,"lo2":-89.0443,"dy":0.0025,"dx":0.0025,"nx":19,"ny":19,"refTime":"2026-04-19T03:00:00:Z","depth":0,"parameterNumber":2,"parameterNumberName":"U-component_of_WINDS"},"data":[0,0,0,0.373,0.3733,0.3896,0.3897,0.408,0.4081,0,0,0,0,0,0,0,0,0,0,0,0.3666,0.3667,0.3729,0.3733,0.3896,0.3897,0.4079,0.4081,0,0,0,0,0,0,0,0,0,0,0,0.3666,0.3667,0.3668,0.3734,0.3896,0.3897,0.4079,0.3965,0,0,0,0,0,0,0,0,0,0,0.3811,0.3738,0.3667,0.3668,0.3734,0.3895,0.3897,0.396,0.3972,0.3995,0,0.4012,0,0.4049,0.4092,0.4092,0,0,0,0.3744,0.3728,0.3785,0.3668,0.3736,0.3895,0.3826,0.3967,0.3981,0.4011,0.4015,0.4022,0.4052,0.4093,0.4094,0.4187,0.4187,0,0,0.3735,0.3688,0.3776,0.3793,0.3767,0.382,0.383,0.3976,0.3976,0.4015,0.4027,0.4055,0.4094,0.4095,0.4187,0.4187,0,0,0,0.3702,0.3681,0.3735,0.3785,0.3816,0.3825,0.3836,0.397,0.3992,0.4029,0.4057,0.4095,0.4097,0.4187,0.4187,0.4134,0,0,0,0.3697,0.3661,0.3731,0.3703,0.3813,0.3895,0.3827,0.3982,0.4,0.4056,0.4095,0.4098,0.4187,0.4187,0.4136,0.4117,0,0,0,0.3661,0.3657,0.3676,0.37,0.3769,0.3894,0.3925,0.3987,0.4016,0.4092,0.4099,0.4187,0.4187,0.4138,0.412,0.4126,0,0,0,0.3609,0.3628,0.3674,0.3707,0.3767,0.3861,0.3924,0.3997,0.4056,0.4096,0.4187,0.4187,0.4138,0.4122,0.4128,0.4122,0.4115,0,0,0.3606,0.3626,0.3649,0.3695,0.3768,0.384,0.3906,0.4005,0.4057,0.414,0.4143,0.4135,0.412,0.4127,0.4098,0.4092,0,0,0,0.3632,0.3648,0.3678,0.3731,0.3807,0.3871,0.3965,0.4002,0.4075,0.409,0.4142,0.4134,0.414,0.4139,0.4135,0.4142,0.4185,0.4185,0.4185,0.356,0.3624,0.3666,0.3748,0.38,0.3896,0.3943,0.4009,0.406,0.4071,0.4096,0.4071,0.4068,0.4065,0.4071,0.4099,0.4099,0.4099,0.4099,0.3561,0.3593,0.3658,0.3722,0.3789,0.3844,0.3937,0.397,0.403,0.4058,0.4066,0.4089,0.4057,0.4066,0.4096,0.4096,0.4097,0.4097,0.4097,0.352,0.3546,0.359,0.3673,0.373,0.3814,0.3867,0.3927,0.3984,0.3992,0.4024,0.4025,0.4032,0.4003,0.4003,0.4003,0.4003,0.4003,0.4003,0.3458,0.351,0.3548,0.3629,0.3671,0.3733,0.3829,0.3872,0.3934,0.3973,0.3974,0.4021,0.4042,0.4045,0.4002,0.4002,0.4002,0.4002,0.4002,0.3433,0.3448,0.3507,0.3548,0.3648,0.3699,0.3775,0.3856,0.39,0.3924,0.397,0.3976,0.4001,0.4005,0.4007,0.3957,0.3957,0.3957,0.3957,0.3397,0.3415,0.3488,0.3549,0.3617,0.3691,0.3753,0.3828,0.3908,0.3938,0.3955,0.3964,0.3965,0.3989,0.3994,0.3997,0.3945,0.3945,0.3945,0.3384,0.3412,0.3453,0.3531,0.3613,0.3682,0.3742,0.381,0.3904,0.3946,0.3963,0.3964,0.3979,0.3981,0.4022,0.4028,0.4036,0,0]},{"header":{"parameterUnit":"m.s-1","parameterCategory":1,"la1":30.2992,"la2":30.254,"lo1":-89.0895,"lo2":-89.0443,"dy":0.0025,"dx":0.0025,"nx":19,"ny":19,"refTime":"2026-04-19T03:00:00:Z","depth":0,"parameterNumber":3,"parameterNumberName":"V-component_of_WINDS"},"data":[0,0,0,5.9398,5.9399,5.9445,5.9445,5.9507,5.9507,0,0,0,0,0,0,0,0,0,0,0,5.9387,5.9388,5.9398,5.9399,5.9445,5.9445,5.9507,5.9507,0,0,0,0,0,0,0,0,0,0,0,5.9387,5.9388,5.9389,5.9399,5.9445,5.9445,5.9506,5.947,0,0,0,0,0,0,0,0,0,0,5.9425,5.9419,5.9388,5.9389,5.94,5.9445,5.9445,5.9469,5.9473,5.9488,0,5.9503,0,5.9507,5.9512,5.9512,0,0,0,5.9396,5.9415,5.9425,5.9389,5.94,5.9445,5.9423,5.9471,5.9475,5.9493,5.9504,5.9506,5.9508,5.9512,5.9513,5.9615,5.9615,0,0,5.9393,5.9397,5.9422,5.9429,5.9424,5.9422,5.9425,5.9473,5.9485,5.9504,5.9508,5.9509,5.9513,5.9513,5.9614,5.9615,0,0,0,5.9388,5.9395,5.9404,5.9426,5.9434,5.9423,5.9427,5.9483,5.9485,5.9508,5.9509,5.9513,5.9514,5.9613,5.9614,5.965,0,0,0,5.9387,5.9392,5.9403,5.9405,5.9434,5.9459,5.9435,5.9482,5.9487,5.9509,5.9513,5.9514,5.9613,5.9614,5.9647,5.9665,0,0,0,5.9383,5.9391,5.94,5.9405,5.9425,5.9459,5.9464,5.9483,5.9488,5.9512,5.9515,5.9612,5.9614,5.9645,5.9661,5.9694,0,0,0,5.938,5.9428,5.94,5.9454,5.9425,5.9481,5.9464,5.9504,5.9529,5.9513,5.9613,5.9614,5.9644,5.9659,5.9692,5.9722,5.9735,0,0,5.9442,5.9435,5.9467,5.9444,5.9506,5.9473,5.954,5.9558,5.9555,5.9595,5.9597,5.9648,5.9661,5.9693,5.9807,5.9818,0,0,0,5.9487,5.951,5.9526,5.9551,5.9569,5.9585,5.9593,5.96,5.9634,5.9577,5.9668,5.9676,5.9695,5.9709,5.9718,5.9734,5.9621,5.9621,5.9621,5.9578,5.9576,5.9629,5.9633,5.9658,5.9668,5.9688,5.9699,5.9686,5.9708,5.972,5.9789,5.9806,5.9813,5.983,5.9736,5.9736,5.9736,5.9736,5.9668,5.9701,5.9688,5.9735,5.9733,5.9771,5.9783,5.9774,5.9809,5.978,5.9796,5.9764,5.9824,5.9839,5.9738,5.9738,5.9738,5.9737,5.9737,5.9727,5.9742,5.9753,5.9792,5.9821,5.9824,5.9859,5.9855,5.985,5.9867,5.9879,5.9879,5.9878,5.9873,5.9874,5.9874,5.9874,5.9874,5.9874,5.9783,5.9794,5.9826,5.9852,5.9869,5.9891,5.9904,5.992,5.9936,5.993,5.993,5.9917,5.9831,5.981,5.9878,5.9877,5.9877,5.9877,5.9876,5.9875,5.9855,5.9904,5.9922,5.9952,5.9983,5.9979,6.0013,6.0026,6.0044,6.0028,5.9965,5.9957,5.995,5.9932,6.0028,6.0028,6.0028,6.0028,5.9924,5.9921,5.9972,6.0002,6.003,6.0032,6.0087,6.0099,6.0106,6.0114,6.01,6.0076,6.0069,6.0065,6.0055,6.0039,6.0159,6.016,6.016,5.998,5.9981,6.0029,6.004,6.0065,6.0086,6.0138,6.0171,6.0175,6.0165,6.012,6.0115,6.0076,6.0064,6.005,6.0036,6.0005,0,0]}]]